Year,Month,Day,Hour,Minute,Value (Times are PST for temperature in C)
2013,10,18,00,00,9.70
2013,10,18,00,01,9.70
2013,10,18,00,02,9.60
2013,10,18,00,03,9.60
2013,10,18,00,04,9.60
2013,10,18,00,05,9.50
2013,10,18,00,06,9.50
2013,10,18,00,07,9.50
2013,10,18,00,08,9.40
2013,10,18,00,09,9.40
2013,10,18,00,10,9.40
2013,10,18,00,11,9.40
2013,10,18,00,12,9.30
2013,10,18,00,13,9.30
2013,10,18,00,14,9.30
2013,10,18,00,15,9.30
2013,10,18,00,16,9.30
2013,10,18,00,17,9.30
2013,10,18,00,18,9.30
2013,10,18,00,19,9.30
2013,10,18,00,20,9.30
2013,10,18,00,21,9.30
2013,10,18,00,22,9.30
2013,10,18,00,23,9.30
2013,10,18,00,24,9.30
2013,10,18,00,25,9.30
2013,10,18,00,26,9.30
2013,10,18,00,27,9.30
2013,10,18,00,28,9.30
2013,10,18,00,29,9.40
2013,10,18,00,30,9.40
2013,10,18,00,31,9.40
2013,10,18,00,32,9.40
2013,10,18,00,33,9.40
2013,10,18,00,34,9.40
2013,10,18,00,35,9.40
2013,10,18,00,36,9.50
2013,10,18,00,37,9.50
2013,10,18,00,38,9.50
2013,10,18,00,39,9.50
2013,10,18,00,40,9.50
2013,10,18,00,41,9.50
2013,10,18,00,42,9.50
2013,10,18,00,43,9.50
2013,10,18,00,44,9.50
2013,10,18,00,45,9.50
2013,10,18,00,46,9.50
2013,10,18,00,47,9.50
2013,10,18,00,48,9.50
2013,10,18,00,49,9.60
2013,10,18,00,50,9.60
2013,10,18,00,51,9.60
2013,10,18,00,52,9.60
2013,10,18,00,53,9.70
2013,10,18,00,54,9.70
2013,10,18,00,55,9.70
2013,10,18,00,56,9.70
2013,10,18,00,57,9.70
2013,10,18,00,58,9.70
2013,10,18,00,59,9.70
2013,10,18,01,00,9.70
2013,10,18,01,01,9.70
2013,10,18,01,02,9.70
2013,10,18,01,03,9.70
2013,10,18,01,04,9.70
2013,10,18,01,05,9.80
2013,10,18,01,06,9.80
2013,10,18,01,07,9.80
2013,10,18,01,08,9.90
2013,10,18,01,09,9.90
2013,10,18,01,10,9.90
2013,10,18,01,11,9.90
2013,10,18,01,12,9.90
2013,10,18,01,13,9.90
2013,10,18,01,14,9.90
2013,10,18,01,15,9.90
2013,10,18,01,16,9.90
2013,10,18,01,17,9.90
2013,10,18,01,18,9.90
2013,10,18,01,19,9.90
2013,10,18,01,20,9.90
2013,10,18,01,21,9.80
2013,10,18,01,22,9.80
2013,10,18,01,23,9.80
2013,10,18,01,24,9.70
2013,10,18,01,25,9.70
2013,10,18,01,26,9.70
2013,10,18,01,27,9.60
2013,10,18,01,28,9.50
2013,10,18,01,29,9.40
2013,10,18,01,30,9.40
2013,10,18,01,31,9.30
2013,10,18,01,32,9.20
2013,10,18,01,33,9.10
2013,10,18,01,34,9.00
2013,10,18,01,35,8.90
2013,10,18,01,36,8.80
2013,10,18,01,37,8.70
2013,10,18,01,38,8.60
2013,10,18,01,39,8.50
2013,10,18,01,40,8.40
2013,10,18,01,41,8.40
2013,10,18,01,42,8.30
2013,10,18,01,43,8.20
2013,10,18,01,44,8.20
2013,10,18,01,45,8.10
2013,10,18,01,46,8.00
2013,10,18,01,47,7.90
2013,10,18,01,48,7.80
2013,10,18,01,49,7.80
2013,10,18,01,50,7.80
2013,10,18,01,51,7.70
2013,10,18,01,52,7.60
2013,10,18,01,53,7.50
2013,10,18,01,54,7.50
2013,10,18,01,55,7.40
2013,10,18,01,56,7.30
2013,10,18,01,57,7.30
2013,10,18,01,58,7.30
2013,10,18,01,59,7.20
2013,10,18,02,00,7.10
2013,10,18,02,01,7.00
2013,10,18,02,02,6.90
2013,10,18,02,03,6.90
2013,10,18,02,04,6.80
2013,10,18,02,05,6.80
2013,10,18,02,06,6.70
2013,10,18,02,07,6.70
2013,10,18,02,08,6.70
2013,10,18,02,09,6.60
2013,10,18,02,10,6.60
2013,10,18,02,11,6.60
2013,10,18,02,12,6.60
2013,10,18,02,13,6.60
2013,10,18,02,14,6.60
2013,10,18,02,15,6.60
2013,10,18,02,16,6.60
2013,10,18,02,17,6.60
2013,10,18,02,18,6.60
2013,10,18,02,19,6.60
2013,10,18,02,20,6.60
2013,10,18,02,21,6.60
2013,10,18,02,22,6.60
2013,10,18,02,23,6.60
2013,10,18,02,24,6.60
2013,10,18,02,25,6.60
2013,10,18,02,26,6.60
2013,10,18,02,27,6.60
2013,10,18,02,28,6.50
2013,10,18,02,29,6.40
2013,10,18,02,30,6.40
2013,10,18,02,31,6.40
2013,10,18,02,32,6.40
2013,10,18,02,33,6.50
2013,10,18,02,34,6.60
2013,10,18,02,35,6.60
2013,10,18,02,36,6.60
2013,10,18,02,37,6.60
2013,10,18,02,38,6.60
2013,10,18,02,39,6.60
2013,10,18,02,40,6.60
2013,10,18,02,41,6.60
2013,10,18,02,42,6.60
2013,10,18,02,43,6.60
2013,10,18,02,44,6.70
2013,10,18,02,45,6.70
2013,10,18,02,46,6.70
2013,10,18,02,47,6.70
2013,10,18,02,48,6.80
2013,10,18,02,49,6.80
2013,10,18,02,50,6.80
2013,10,18,02,51,6.90
2013,10,18,02,52,6.90
2013,10,18,02,53,6.90
2013,10,18,02,54,6.90
2013,10,18,02,55,6.90
2013,10,18,02,56,7.00
2013,10,18,02,57,7.00
2013,10,18,02,58,7.00
2013,10,18,02,59,7.00
2013,10,18,03,00,7.10
2013,10,18,03,01,7.10
2013,10,18,03,02,7.10
2013,10,18,03,03,7.20
2013,10,18,03,04,7.20
2013,10,18,03,05,7.20
2013,10,18,03,06,7.20
2013,10,18,03,07,7.30
2013,10,18,03,08,7.30
2013,10,18,03,09,7.30
2013,10,18,03,10,7.30
2013,10,18,03,11,7.30
2013,10,18,03,12,7.30
2013,10,18,03,13,7.30
2013,10,18,03,14,7.30
2013,10,18,03,15,7.30
2013,10,18,03,16,7.30
2013,10,18,03,17,7.30
2013,10,18,03,18,7.30
2013,10,18,03,19,7.30
2013,10,18,03,20,7.30
2013,10,18,03,21,7.30
2013,10,18,03,22,7.40
2013,10,18,03,23,7.40
2013,10,18,03,24,7.40
2013,10,18,03,25,7.40
2013,10,18,03,26,7.40
2013,10,18,03,27,7.40
2013,10,18,03,28,7.30
2013,10,18,03,29,7.30
2013,10,18,03,30,7.30
2013,10,18,03,31,7.30
2013,10,18,03,32,7.30
2013,10,18,03,33,7.30
2013,10,18,03,34,7.30
2013,10,18,03,35,7.20
2013,10,18,03,36,7.20
2013,10,18,03,37,7.20
2013,10,18,03,38,7.10
2013,10,18,03,39,7.10
2013,10,18,03,40,7.00
2013,10,18,03,41,7.00
2013,10,18,03,42,7.00
2013,10,18,03,43,7.00
2013,10,18,03,44,7.00
2013,10,18,03,45,7.00
2013,10,18,03,46,7.00
2013,10,18,03,47,7.00
2013,10,18,03,48,7.00
2013,10,18,03,49,7.10
2013,10,18,03,50,7.10
2013,10,18,03,51,7.10
2013,10,18,03,52,7.10
2013,10,18,03,53,7.10
2013,10,18,03,54,7.10
2013,10,18,03,55,7.10
2013,10,18,03,56,7.10
2013,10,18,03,57,7.10
2013,10,18,03,58,7.10
2013,10,18,03,59,7.00
2013,10,18,04,00,7.00
2013,10,18,04,01,7.00
2013,10,18,04,02,7.00
2013,10,18,04,03,7.10
2013,10,18,04,04,7.10
2013,10,18,04,05,7.20
2013,10,18,04,06,7.20
2013,10,18,04,07,7.20
2013,10,18,04,08,7.30
2013,10,18,04,09,7.30
2013,10,18,04,10,7.30
2013,10,18,04,11,7.30
2013,10,18,04,12,7.30
2013,10,18,04,13,7.30
2013,10,18,04,14,7.30
2013,10,18,04,15,7.30
2013,10,18,04,16,7.30
2013,10,18,04,17,7.30
2013,10,18,04,18,7.30
2013,10,18,04,19,7.30
2013,10,18,04,20,7.30
2013,10,18,04,21,7.30
2013,10,18,04,22,7.30
2013,10,18,04,23,7.40
2013,10,18,04,24,7.40
2013,10,18,04,25,7.40
2013,10,18,04,26,7.40
2013,10,18,04,27,7.40
2013,10,18,04,28,7.40
2013,10,18,04,29,7.40
2013,10,18,04,30,7.40
2013,10,18,04,31,7.40
2013,10,18,04,32,7.40
2013,10,18,04,33,7.40
2013,10,18,04,34,7.40
2013,10,18,04,35,7.40
2013,10,18,04,36,7.40
2013,10,18,04,37,7.40
2013,10,18,04,38,7.40
2013,10,18,04,39,7.40
2013,10,18,04,40,7.40
2013,10,18,04,41,7.50
2013,10,18,04,42,7.50
2013,10,18,04,43,7.50
2013,10,18,04,44,7.60
2013,10,18,04,45,7.60
2013,10,18,04,46,7.60
2013,10,18,04,47,7.70
2013,10,18,04,48,7.70
2013,10,18,04,49,7.70
2013,10,18,04,50,7.80
2013,10,18,04,51,7.80
2013,10,18,04,52,7.80
2013,10,18,04,53,7.80
2013,10,18,04,54,7.80
2013,10,18,04,55,7.80
2013,10,18,04,56,7.80
2013,10,18,04,57,7.90
2013,10,18,04,58,7.90
2013,10,18,04,59,7.80
2013,10,18,05,00,7.80
2013,10,18,05,01,7.80
2013,10,18,05,02,7.80
2013,10,18,05,03,7.80
2013,10,18,05,04,7.80
2013,10,18,05,05,7.80
2013,10,18,05,06,7.80
2013,10,18,05,07,7.70
2013,10,18,05,08,7.70
2013,10,18,05,09,7.60
2013,10,18,05,10,7.60
2013,10,18,05,11,7.50
2013,10,18,05,12,7.50
2013,10,18,05,13,7.40
2013,10,18,05,14,7.30
2013,10,18,05,15,7.20
2013,10,18,05,16,7.20
2013,10,18,05,17,7.10
2013,10,18,05,18,7.00
2013,10,18,05,19,6.90
2013,10,18,05,20,6.80
2013,10,18,05,21,6.80
2013,10,18,05,22,6.70
2013,10,18,05,23,6.70
2013,10,18,05,24,6.60
2013,10,18,05,25,6.60
2013,10,18,05,26,6.60
2013,10,18,05,27,6.40
2013,10,18,05,28,6.40
2013,10,18,05,29,6.40
2013,10,18,05,30,6.40
2013,10,18,05,31,6.40
2013,10,18,05,32,6.30
2013,10,18,05,33,6.30
2013,10,18,05,34,6.30
2013,10,18,05,35,6.30
2013,10,18,05,36,6.30
2013,10,18,05,37,6.30
2013,10,18,05,38,6.30
2013,10,18,05,39,6.30
2013,10,18,05,40,6.20
2013,10,18,05,41,6.20
2013,10,18,05,42,6.20
2013,10,18,05,43,6.20
2013,10,18,05,44,6.20
2013,10,18,05,45,6.20
2013,10,18,05,46,6.20
2013,10,18,05,47,6.20
2013,10,18,05,48,6.20
2013,10,18,05,49,6.20
2013,10,18,05,50,6.20
2013,10,18,05,51,6.20
2013,10,18,05,52,6.20
2013,10,18,05,53,6.20
2013,10,18,05,54,6.20
2013,10,18,05,55,6.20
2013,10,18,05,56,6.20
2013,10,18,05,57,6.20
2013,10,18,05,58,6.20
2013,10,18,05,59,6.20
2013,10,18,06,00,6.10
2013,10,18,06,01,6.10
2013,10,18,06,02,6.10
2013,10,18,06,03,6.00
2013,10,18,06,04,6.00
2013,10,18,06,05,6.00
2013,10,18,06,06,5.90
2013,10,18,06,07,5.90
2013,10,18,06,08,5.80
2013,10,18,06,09,5.80
2013,10,18,06,10,5.70
2013,10,18,06,11,5.70
2013,10,18,06,12,5.70
2013,10,18,06,13,5.70
2013,10,18,06,14,5.60
2013,10,18,06,15,5.60
2013,10,18,06,16,5.60
2013,10,18,06,17,5.50
2013,10,18,06,18,5.50
2013,10,18,06,19,5.50
2013,10,18,06,20,5.40
2013,10,18,06,21,5.40
2013,10,18,06,22,5.40
2013,10,18,06,23,5.40
2013,10,18,06,24,5.40
2013,10,18,06,25,5.40
2013,10,18,06,26,5.30
2013,10,18,06,27,5.30
2013,10,18,06,28,5.20
2013,10,18,06,29,5.10
2013,10,18,06,30,5.10
2013,10,18,06,31,5.00
2013,10,18,06,32,4.90
2013,10,18,06,33,4.90
2013,10,18,06,34,4.80
2013,10,18,06,35,4.80
2013,10,18,06,36,4.70
2013,10,18,06,37,4.70
2013,10,18,06,38,4.70
2013,10,18,06,39,4.60
2013,10,18,06,40,4.60
2013,10,18,06,41,4.60
2013,10,18,06,42,4.60
2013,10,18,06,43,4.60
2013,10,18,06,44,4.60
2013,10,18,06,45,4.60
2013,10,18,06,46,4.60
2013,10,18,06,47,4.60
2013,10,18,06,48,4.60
2013,10,18,06,49,4.50
2013,10,18,06,50,4.50
2013,10,18,06,51,4.50
2013,10,18,06,52,4.50
2013,10,18,06,53,4.50
2013,10,18,06,54,4.40
2013,10,18,06,55,4.40
2013,10,18,06,56,4.40
2013,10,18,06,57,4.40
2013,10,18,06,58,4.30
2013,10,18,06,59,4.30
2013,10,18,07,00,4.30
2013,10,18,07,01,4.20
2013,10,18,07,02,4.20
2013,10,18,07,03,4.20
2013,10,18,07,04,4.20
2013,10,18,07,05,4.20
2013,10,18,07,06,4.20
2013,10,18,07,07,4.20
2013,10,18,07,08,4.20
2013,10,18,07,09,4.20
2013,10,18,07,10,4.20
2013,10,18,07,11,4.20
2013,10,18,07,12,4.10
2013,10,18,07,13,4.10
2013,10,18,07,14,4.10
2013,10,18,07,15,4.10
2013,10,18,07,16,4.10
2013,10,18,07,17,4.20
2013,10,18,07,18,4.20
2013,10,18,07,19,4.20
2013,10,18,07,20,4.20
2013,10,18,07,21,4.20
2013,10,18,07,22,4.20
2013,10,18,07,23,4.20
2013,10,18,07,24,4.20
2013,10,18,07,25,4.20
2013,10,18,07,26,4.20
2013,10,18,07,27,4.20
2013,10,18,07,28,4.20
2013,10,18,07,29,4.20
2013,10,18,07,30,4.20
2013,10,18,07,31,4.20
2013,10,18,07,32,4.20
2013,10,18,07,33,4.20
2013,10,18,07,34,4.20
2013,10,18,07,35,4.20
2013,10,18,07,36,4.30
2013,10,18,07,37,4.30
2013,10,18,07,38,4.30
2013,10,18,07,39,4.40
2013,10,18,07,40,4.50
2013,10,18,07,41,4.50
2013,10,18,07,42,4.60
2013,10,18,07,43,4.60
2013,10,18,07,44,4.70
2013,10,18,07,45,4.80
2013,10,18,07,46,4.80
2013,10,18,07,47,4.90
2013,10,18,07,48,4.90
2013,10,18,07,49,5.00
2013,10,18,07,50,5.10
2013,10,18,07,51,5.10
2013,10,18,07,52,5.10
2013,10,18,07,53,5.10
2013,10,18,07,54,5.20
2013,10,18,07,55,5.20
2013,10,18,07,56,5.20
2013,10,18,07,57,5.20
2013,10,18,07,58,5.10
2013,10,18,07,59,5.10
2013,10,18,08,00,5.10
2013,10,18,08,01,5.10
2013,10,18,08,02,5.10
2013,10,18,08,03,5.10
2013,10,18,08,04,5.10
2013,10,18,08,05,5.10
2013,10,18,08,06,5.10
2013,10,18,08,07,5.10
2013,10,18,08,08,5.20
2013,10,18,08,09,5.20
2013,10,18,08,10,5.30
2013,10,18,08,11,5.30
2013,10,18,08,12,5.30
2013,10,18,08,13,5.30
2013,10,18,08,14,5.30
2013,10,18,08,15,5.40
2013,10,18,08,16,5.40
2013,10,18,08,17,5.40
2013,10,18,08,18,5.50
2013,10,18,08,19,5.50
2013,10,18,08,20,5.60
2013,10,18,08,21,5.60
2013,10,18,08,22,5.60
2013,10,18,08,23,5.70
2013,10,18,08,24,5.70
2013,10,18,08,25,5.70
2013,10,18,08,26,5.70
2013,10,18,08,27,5.70
2013,10,18,08,28,5.70
2013,10,18,08,29,5.70
2013,10,18,08,30,5.70
2013,10,18,08,31,5.70
2013,10,18,08,32,5.70
2013,10,18,08,33,5.70
2013,10,18,08,34,5.70
2013,10,18,08,35,5.70
2013,10,18,08,36,5.80
2013,10,18,08,37,5.80
2013,10,18,08,38,5.80
2013,10,18,08,39,5.90
2013,10,18,08,40,5.90
2013,10,18,08,41,6.00
2013,10,18,08,42,6.00
2013,10,18,08,43,6.10
2013,10,18,08,44,6.10
2013,10,18,08,45,6.20
2013,10,18,08,46,6.20
2013,10,18,08,47,6.20
2013,10,18,08,48,6.20
2013,10,18,08,49,6.30
2013,10,18,08,50,6.30
2013,10,18,08,51,6.30
2013,10,18,08,52,6.30
2013,10,18,08,53,6.30
2013,10,18,08,54,6.40
2013,10,18,08,55,6.40
2013,10,18,08,56,6.40
2013,10,18,08,57,6.40
2013,10,18,08,58,6.50
2013,10,18,08,59,6.60
2013,10,18,09,00,6.60
2013,10,18,09,01,6.60
2013,10,18,09,02,6.70
2013,10,18,09,03,6.70
2013,10,18,09,04,6.70
2013,10,18,09,05,6.80
2013,10,18,09,06,6.80
2013,10,18,09,07,6.80
2013,10,18,09,08,6.80
2013,10,18,09,09,6.80
2013,10,18,09,10,6.80
2013,10,18,09,11,6.70
2013,10,18,09,12,6.70
2013,10,18,09,13,6.60
2013,10,18,09,14,6.60
2013,10,18,09,15,6.60
2013,10,18,09,16,6.60
2013,10,18,09,17,6.60
2013,10,18,09,18,6.60
2013,10,18,09,19,6.60
2013,10,18,09,20,6.60
2013,10,18,09,21,6.60
2013,10,18,09,22,6.60
2013,10,18,09,23,6.60
2013,10,18,09,24,6.60
2013,10,18,09,25,6.60
2013,10,18,09,26,6.60
2013,10,18,09,27,6.60
2013,10,18,09,28,6.50
2013,10,18,09,29,6.40
2013,10,18,09,30,6.40
2013,10,18,09,31,6.40
2013,10,18,09,32,6.40
2013,10,18,09,33,6.40
2013,10,18,09,34,6.40
2013,10,18,09,35,6.40
2013,10,18,09,36,6.40
2013,10,18,09,37,6.40
2013,10,18,09,38,6.40
2013,10,18,09,39,6.40
2013,10,18,09,40,6.40
2013,10,18,09,41,6.40
2013,10,18,09,42,6.40
2013,10,18,09,43,6.40
2013,10,18,09,44,6.50
2013,10,18,09,45,6.60
2013,10,18,09,46,6.60
2013,10,18,09,47,6.60
2013,10,18,09,48,6.70
2013,10,18,09,49,6.70
2013,10,18,09,50,6.70
2013,10,18,09,51,6.80
2013,10,18,09,52,6.80
2013,10,18,09,53,6.80
2013,10,18,09,54,6.80
2013,10,18,09,55,6.80
2013,10,18,09,56,6.90
2013,10,18,09,57,6.90
2013,10,18,09,58,6.90
2013,10,18,09,59,7.00
2013,10,18,10,00,7.00
2013,10,18,10,01,7.00
2013,10,18,10,02,7.00
2013,10,18,10,03,7.10
2013,10,18,10,04,7.10
2013,10,18,10,05,7.10
2013,10,18,10,06,7.10
2013,10,18,10,07,7.10
2013,10,18,10,08,7.10
2013,10,18,10,09,7.10
2013,10,18,10,10,7.20
2013,10,18,10,11,7.20
2013,10,18,10,12,7.20
2013,10,18,10,13,7.20
2013,10,18,10,14,7.20
2013,10,18,10,15,7.30
2013,10,18,10,16,7.30
2013,10,18,10,17,7.20
2013,10,18,10,18,7.20
2013,10,18,10,19,7.20
2013,10,18,10,20,7.10
2013,10,18,10,21,7.10
2013,10,18,10,22,7.10
2013,10,18,10,23,7.10
2013,10,18,10,24,7.20
2013,10,18,10,25,7.20
2013,10,18,10,26,7.20
2013,10,18,10,27,7.20
2013,10,18,10,28,7.10
2013,10,18,10,29,7.10
2013,10,18,10,30,7.20
2013,10,18,10,31,7.20
2013,10,18,10,32,7.20
2013,10,18,10,33,7.20
2013,10,18,10,34,7.30
2013,10,18,10,35,7.30
2013,10,18,10,36,7.30
2013,10,18,10,37,7.30
2013,10,18,10,38,7.30
2013,10,18,10,39,7.30
2013,10,18,10,40,7.30
2013,10,18,10,41,7.30
2013,10,18,10,42,7.40
2013,10,18,10,43,7.40
2013,10,18,10,44,7.40
2013,10,18,10,45,7.40
2013,10,18,10,46,7.40
2013,10,18,10,47,7.40
2013,10,18,10,48,7.40
2013,10,18,10,49,7.40
2013,10,18,10,50,7.50
2013,10,18,10,51,7.50
2013,10,18,10,52,7.50
2013,10,18,10,53,7.60
2013,10,18,10,54,7.60
2013,10,18,10,55,7.50
2013,10,18,10,56,7.50
2013,10,18,10,57,7.50
2013,10,18,10,58,7.60
2013,10,18,10,59,7.60
2013,10,18,11,00,7.70
2013,10,18,11,01,7.80
2013,10,18,11,02,7.80
2013,10,18,11,03,7.80
2013,10,18,11,04,7.90
2013,10,18,11,05,7.90
2013,10,18,11,06,8.00
2013,10,18,11,07,8.00
2013,10,18,11,08,8.00
2013,10,18,11,09,8.10
2013,10,18,11,10,8.10
2013,10,18,11,11,8.10
2013,10,18,11,12,8.10
2013,10,18,11,13,8.10
2013,10,18,11,14,8.10
2013,10,18,11,15,8.10
2013,10,18,11,16,8.20
2013,10,18,11,17,8.10
2013,10,18,11,18,8.10
2013,10,18,11,19,8.10
2013,10,18,11,20,8.10
2013,10,18,11,21,8.10
2013,10,18,11,22,8.00
2013,10,18,11,23,8.00
2013,10,18,11,24,8.00
2013,10,18,11,25,8.00
2013,10,18,11,26,8.00
2013,10,18,11,27,8.10
2013,10,18,11,28,8.10
2013,10,18,11,29,8.10
2013,10,18,11,30,8.10
2013,10,18,11,31,8.10
2013,10,18,11,32,8.10
2013,10,18,11,33,8.10
2013,10,18,11,34,8.10
2013,10,18,11,35,8.10
2013,10,18,11,36,8.10
2013,10,18,11,37,8.10
2013,10,18,11,38,8.10
2013,10,18,11,39,8.10
2013,10,18,11,40,8.10
2013,10,18,11,41,8.20
2013,10,18,11,42,8.20
2013,10,18,11,43,8.20
2013,10,18,11,44,8.20
2013,10,18,11,45,8.20
2013,10,18,11,46,8.20
2013,10,18,11,47,8.20
2013,10,18,11,48,8.30
2013,10,18,11,49,8.30
2013,10,18,11,50,8.30
2013,10,18,11,51,8.30
2013,10,18,11,52,8.30
2013,10,18,11,53,8.30
2013,10,18,11,54,8.30
2013,10,18,11,55,8.30
2013,10,18,11,56,8.40
2013,10,18,11,57,8.40
2013,10,18,11,58,8.40
2013,10,18,11,59,8.40
2013,10,18,12,00,8.50
2013,10,18,12,01,8.50
2013,10,18,12,02,8.50
2013,10,18,12,03,8.50
2013,10,18,12,04,8.50
2013,10,18,12,05,8.50
2013,10,18,12,06,8.50
2013,10,18,12,07,8.50
2013,10,18,12,08,8.50
2013,10,18,12,09,8.50
2013,10,18,12,10,8.60
2013,10,18,12,11,8.60
2013,10,18,12,12,8.60
2013,10,18,12,13,8.60
2013,10,18,12,14,8.60
2013,10,18,12,15,8.60
2013,10,18,12,16,8.60
2013,10,18,12,17,8.60
2013,10,18,12,18,8.60
2013,10,18,12,19,8.70
2013,10,18,12,20,8.70
2013,10,18,12,21,8.70
2013,10,18,12,22,8.70
2013,10,18,12,23,8.70
2013,10,18,12,24,8.70
2013,10,18,12,25,8.70
2013,10,18,12,26,8.70
2013,10,18,12,27,8.70
2013,10,18,12,28,8.70
2013,10,18,12,29,8.70
2013,10,18,12,30,8.70
2013,10,18,12,31,8.70
2013,10,18,12,32,8.70
2013,10,18,12,33,8.60
2013,10,18,12,34,8.60
2013,10,18,12,35,8.70
2013,10,18,12,36,8.70
2013,10,18,12,37,8.70
2013,10,18,12,38,8.70
2013,10,18,12,39,8.70
2013,10,18,12,40,8.70
2013,10,18,12,41,8.70
2013,10,18,12,42,8.70
2013,10,18,12,43,8.70
2013,10,18,12,44,8.60
2013,10,18,12,45,8.60
2013,10,18,12,46,8.70
2013,10,18,12,47,8.70
2013,10,18,12,48,8.70
2013,10,18,12,49,8.70
2013,10,18,12,50,8.70
2013,10,18,12,51,8.70
2013,10,18,12,52,8.70
2013,10,18,12,53,8.70
2013,10,18,12,54,8.70
2013,10,18,12,55,8.80
2013,10,18,12,56,8.80
2013,10,18,12,57,8.90
2013,10,18,12,58,8.90
2013,10,18,12,59,8.90
2013,10,18,13,00,8.90
2013,10,18,13,01,9.00
2013,10,18,13,02,9.00
2013,10,18,13,03,9.00
2013,10,18,13,04,9.10
2013,10,18,13,05,9.20
2013,10,18,13,06,9.20
2013,10,18,13,07,9.20
2013,10,18,13,08,9.20
2013,10,18,13,09,9.30
2013,10,18,13,10,9.40
2013,10,18,13,11,9.50
2013,10,18,13,12,9.50
2013,10,18,13,13,9.50
2013,10,18,13,14,9.60
2013,10,18,13,15,9.60
2013,10,18,13,16,9.60
2013,10,18,13,17,9.70
2013,10,18,13,18,9.70
2013,10,18,13,19,9.70
2013,10,18,13,20,9.70
2013,10,18,13,21,9.70
2013,10,18,13,22,9.80
2013,10,18,13,23,9.80
2013,10,18,13,24,9.80
2013,10,18,13,25,9.90
2013,10,18,13,26,9.90
2013,10,18,13,27,10.00
2013,10,18,13,28,10.10
2013,10,18,13,29,10.10
2013,10,18,13,30,10.10
2013,10,18,13,31,10.10
2013,10,18,13,32,10.10
2013,10,18,13,33,10.10
2013,10,18,13,34,10.10
2013,10,18,13,35,10.10
2013,10,18,13,36,10.10
2013,10,18,13,37,10.20
2013,10,18,13,38,10.20
2013,10,18,13,39,10.20
2013,10,18,13,40,10.20
2013,10,18,13,41,10.30
2013,10,18,13,42,10.30
2013,10,18,13,43,10.40
2013,10,18,13,44,10.40
2013,10,18,13,45,10.40
2013,10,18,13,46,10.40
2013,10,18,13,47,10.50
2013,10,18,13,48,10.50
2013,10,18,13,49,10.40
2013,10,18,13,50,10.40
2013,10,18,13,51,10.40
2013,10,18,13,52,10.40
2013,10,18,13,53,10.40
2013,10,18,13,54,10.40
2013,10,18,13,55,10.30
2013,10,18,13,56,10.20
2013,10,18,13,57,10.20
2013,10,18,13,58,10.30
2013,10,18,13,59,10.30
2013,10,18,14,00,10.30
2013,10,18,14,01,10.40
2013,10,18,14,02,10.40
2013,10,18,14,03,10.40
2013,10,18,14,04,10.40
2013,10,18,14,05,10.60
2013,10,18,14,06,10.60
2013,10,18,14,07,10.60
2013,10,18,14,08,10.60
2013,10,18,14,09,10.60
2013,10,18,14,10,10.60
2013,10,18,14,11,10.60
2013,10,18,14,12,10.60
2013,10,18,14,13,10.60
2013,10,18,14,14,10.60
2013,10,18,14,15,10.60
2013,10,18,14,16,10.60
2013,10,18,14,17,10.60
2013,10,18,14,18,10.60
2013,10,18,14,19,10.60
2013,10,18,14,20,10.60
2013,10,18,14,21,10.60
2013,10,18,14,22,10.60
2013,10,18,14,23,10.60
2013,10,18,14,24,10.60
2013,10,18,14,25,10.60
2013,10,18,14,26,10.60
2013,10,18,14,27,10.60
2013,10,18,14,28,10.60
2013,10,18,14,29,10.60
2013,10,18,14,30,10.60
2013,10,18,14,31,10.60
2013,10,18,14,32,10.60
2013,10,18,14,33,10.60
2013,10,18,14,34,10.60
2013,10,18,14,35,10.70
2013,10,18,14,36,10.80
2013,10,18,14,37,10.90
2013,10,18,14,38,11.00
2013,10,18,14,39,11.10
2013,10,18,14,40,11.10
2013,10,18,14,41,11.20
2013,10,18,14,42,11.20
2013,10,18,14,43,11.30
2013,10,18,14,44,11.30
2013,10,18,14,45,11.30
2013,10,18,14,46,11.30
2013,10,18,14,47,11.30
2013,10,18,14,48,11.30
2013,10,18,14,49,11.30
2013,10,18,14,50,11.30
2013,10,18,14,51,11.30
2013,10,18,14,52,11.30
2013,10,18,14,53,11.30
2013,10,18,14,54,11.20
2013,10,18,14,55,11.20
2013,10,18,14,56,11.20
2013,10,18,14,57,11.20
2013,10,18,14,58,11.20
2013,10,18,14,59,11.30
2013,10,18,15,00,11.30
2013,10,18,15,01,11.30
2013,10,18,15,02,11.40
2013,10,18,15,03,11.40
2013,10,18,15,04,11.40
2013,10,18,15,05,11.50
2013,10,18,15,06,11.60
2013,10,18,15,07,11.60
2013,10,18,15,08,11.70
2013,10,18,15,09,11.70
2013,10,18,15,10,11.80
2013,10,18,15,11,11.80
2013,10,18,15,12,11.90
2013,10,18,15,13,11.90
2013,10,18,15,14,11.90
2013,10,18,15,15,12.00
2013,10,18,15,16,12.10
2013,10,18,15,17,12.20
2013,10,18,15,18,12.20
2013,10,18,15,19,12.30
2013,10,18,15,20,12.30
2013,10,18,15,21,12.30
2013,10,18,15,22,12.30
2013,10,18,15,23,12.30
2013,10,18,15,24,12.30
2013,10,18,15,25,12.30
2013,10,18,15,26,12.30
2013,10,18,15,27,12.30
2013,10,18,15,28,12.20
2013,10,18,15,29,12.20
2013,10,18,15,30,12.20
2013,10,18,15,31,12.10
2013,10,18,15,32,12.10
2013,10,18,15,33,12.00
2013,10,18,15,34,12.00
2013,10,18,15,35,11.90
2013,10,18,15,36,11.90
2013,10,18,15,37,11.90
2013,10,18,15,38,11.90
2013,10,18,15,39,11.90
2013,10,18,15,40,11.90
2013,10,18,15,41,12.00
2013,10,18,15,42,12.10
2013,10,18,15,43,12.20
2013,10,18,15,44,12.30
2013,10,18,15,45,12.40
2013,10,18,15,46,12.40
2013,10,18,15,47,12.50
2013,10,18,15,48,12.50
2013,10,18,15,49,12.40
2013,10,18,15,50,12.40
2013,10,18,15,51,12.40
2013,10,18,15,52,12.30
2013,10,18,15,53,12.30
2013,10,18,15,54,12.20
2013,10,18,15,55,12.10
2013,10,18,15,56,12.00
2013,10,18,15,57,12.00
2013,10,18,15,58,12.00
2013,10,18,15,59,11.90
2013,10,18,16,00,11.80
2013,10,18,16,01,11.80
2013,10,18,16,02,11.80
2013,10,18,16,03,11.80
2013,10,18,16,04,11.70
2013,10,18,16,05,11.70
2013,10,18,16,06,11.80
2013,10,18,16,07,11.80
2013,10,18,16,08,11.80
2013,10,18,16,09,11.80
2013,10,18,16,10,11.80
2013,10,18,16,11,11.80
2013,10,18,16,12,11.80
2013,10,18,16,13,11.80
2013,10,18,16,14,11.80
2013,10,18,16,15,11.80
2013,10,18,16,16,11.60
2013,10,18,16,17,11.60
2013,10,18,16,18,11.50
2013,10,18,16,19,11.40
2013,10,18,16,20,11.40
2013,10,18,16,21,11.40
2013,10,18,16,22,11.40
2013,10,18,16,23,11.40
2013,10,18,16,24,11.40
2013,10,18,16,25,11.40
2013,10,18,16,26,11.40
2013,10,18,16,27,11.50
2013,10,18,16,28,11.60
2013,10,18,16,29,11.70
2013,10,18,16,30,11.80
2013,10,18,16,31,11.80
2013,10,18,16,32,12.00
2013,10,18,16,33,12.00
2013,10,18,16,34,12.10
2013,10,18,16,35,12.30
2013,10,18,16,36,12.30
2013,10,18,16,37,12.30
2013,10,18,16,38,12.30
2013,10,18,16,39,12.30
2013,10,18,16,40,12.30
2013,10,18,16,41,12.30
2013,10,18,16,42,12.30
2013,10,18,16,43,12.30
2013,10,18,16,44,12.30
2013,10,18,16,45,12.20
2013,10,18,16,46,12.10
2013,10,18,16,47,12.00
2013,10,18,16,48,11.90
2013,10,18,16,49,11.90
2013,10,18,16,50,11.80
2013,10,18,16,51,11.80
2013,10,18,16,52,11.80
2013,10,18,16,53,11.80
2013,10,18,16,54,11.80
2013,10,18,16,55,11.70
2013,10,18,16,56,11.80
2013,10,18,16,57,11.80
2013,10,18,16,58,11.80
2013,10,18,16,59,11.80
2013,10,18,17,00,11.70
2013,10,18,17,01,11.60
2013,10,18,17,02,11.60
2013,10,18,17,03,11.60
2013,10,18,17,04,11.60
2013,10,18,17,05,11.60
2013,10,18,17,06,11.60
2013,10,18,17,07,11.60
2013,10,18,17,08,11.60
2013,10,18,17,09,11.60
2013,10,18,17,10,11.50
2013,10,18,17,11,11.40
2013,10,18,17,12,11.40
2013,10,18,17,13,11.40
2013,10,18,17,14,11.40
2013,10,18,17,15,11.40
2013,10,18,17,16,11.40
2013,10,18,17,17,11.40
2013,10,18,17,18,11.40
2013,10,18,17,19,11.40
2013,10,18,17,20,11.40
2013,10,18,17,21,11.40
2013,10,18,17,22,11.40
2013,10,18,17,23,11.40
2013,10,18,17,24,11.40
2013,10,18,17,25,11.30
2013,10,18,17,26,11.30
2013,10,18,17,27,11.20
2013,10,18,17,28,11.20
2013,10,18,17,29,11.20
2013,10,18,17,30,11.10
2013,10,18,17,31,11.00
2013,10,18,17,32,10.90
2013,10,18,17,33,10.90
2013,10,18,17,34,10.70
2013,10,18,17,35,10.60
2013,10,18,17,36,10.60
2013,10,18,17,37,10.50
2013,10,18,17,38,10.40
2013,10,18,17,39,10.30
2013,10,18,17,40,10.20
2013,10,18,17,41,10.10
2013,10,18,17,42,10.00
2013,10,18,17,43,9.90
2013,10,18,17,44,9.80
2013,10,18,17,45,9.80
2013,10,18,17,46,9.70
2013,10,18,17,47,9.70
2013,10,18,17,48,9.60
2013,10,18,17,49,9.60
2013,10,18,17,50,9.50
2013,10,18,17,51,9.40
2013,10,18,17,52,9.40
2013,10,18,17,53,9.30
2013,10,18,17,54,9.30
2013,10,18,17,55,9.20